Chicago Midway, IL

4:51 AM CDT on July 24, 2017 (GMT -0500)
Chicago-Midway

Weather History for KMDW - October, 2010

Change the Weather History Date:

Monday, October 25, 2010

  Actual Average Record
Temperature  
Mean Temperature 64 °F 51 °F  
Max Temperature 72 °F 59 °F 79 °F (1989)
Min Temperature 57 °F 43 °F 25 °F (1962)
Degree Days  
Heating Degree Days 1 14  
Month to date heating degree days 256  
Since 1 July heating degree days 338  
Cooling Degree Days 0 0  
Month to date cooling degree days 13  
Year to date cooling degree days 1042  
Growing Degree Days 14 (Base 50)    
Moisture  
Dew Point 57 °F    
Average Humidity 76    
Maximum Humidity 97    
Minimum Humidity 57    
Precipitation  
Precipitation 0.01 in 0.11 in 1.87 in (1932)
Month to date precipitation 2.56  
Year to date precipitation 32.42  
Sea Level Pressure  
Sea Level Pressure 29.51 in    
Wind  
Wind Speed 8 mph (SSW)    
Max Wind Speed 20 mph    
Max Gust Speed 28 mph    
Visibility 9 miles    
Events      
T = Trace of Precipitation, MM = Missing Value Source: NWS Daily Summary

Daily Weather History Graph

Daily Weather History Graph

Search for Another Location

Airport or City:

Trip Planner

Search our weather history database for the weather conditions in past years. The results will help you decide how hot, cold, wet, or windy it might be!

Date:

Astronomy

Oct. 25, 2010 Rise Set
Actual Time 7:14 AM CDT 5:54 PM CDT
Civil Twilight 6:46 AM CDT 6:23 PM CDT
Nautical Twilight 6:13 AM CDT 6:55 PM CDT
Astronomical Twilight 5:41 AM CDT 7:27 PM CDT
Moon 7:19 PM CDT (10/25) 10:00 AM CDT (10/25)
Length of Visible Light 11h 36m
Length of Day
10h 39m
Waning Gibbous, 93% of the Moon is Illuminated
Oct 25
Waning Gibbous
Oct 30
Last Quarter
Nov 5
New
Nov 13
First Quarter
Nov 21
Full

Hourly Weather History & Observations

Time (CDT) Temp. Dew Point Humidity Pressure Visibility Wind Dir Wind Speed Gust Speed Precip Events Conditions
12:51 AM 60.1 °F 57.9 °F 93% 29.60 in 10.0 mi SSW 3.5 mph - N/A   Overcast
1:51 AM 60.1 °F 57.9 °F 93% 29.59 in 10.0 mi SSW 3.5 mph - 0.00 in   Mostly Cloudy
2:51 AM 59.0 °F 57.2 °F 94% 29.59 in 6.0 mi South 5.8 mph - N/A   Mostly Cloudy
3:51 AM 59.0 °F 57.9 °F 96% 29.56 in 6.0 mi SW 3.5 mph - N/A   Mostly Cloudy
4:51 AM 59.0 °F 57.0 °F 93% 29.56 in 6.0 mi South 5.8 mph - 0.01 in   Mostly Cloudy
5:51 AM 57.9 °F 57.0 °F 97% 29.56 in 7.0 mi SSW 5.8 mph - N/A   Scattered Clouds
6:51 AM 57.0 °F 55.9 °F 96% 29.56 in 7.0 mi SSW 5.8 mph - N/A   Scattered Clouds
7:51 AM 57.0 °F 55.0 °F 93% 29.57 in 7.0 mi SSW 9.2 mph - N/A   Partly Cloudy
8:51 AM 60.1 °F 55.9 °F 86% 29.56 in 9.0 mi SSW 5.8 mph - N/A   Partly Cloudy
9:51 AM 63.0 °F 55.9 °F 78% 29.57 in 10.0 mi SSW 8.1 mph - N/A   Scattered Clouds
10:51 AM 66.0 °F 55.0 °F 68% 29.57 in 10.0 mi SSW 10.4 mph - N/A   Scattered Clouds
11:51 AM 66.9 °F 55.9 °F 68% 29.56 in 10.0 mi SSW 11.5 mph 18.4 mph N/A   Mostly Cloudy
12:51 PM 69.1 °F 57.0 °F 65% 29.53 in 10.0 mi SW 12.7 mph 20.7 mph N/A   Mostly Cloudy
1:51 PM 71.1 °F 55.9 °F 59% 29.51 in 10.0 mi SSW 17.3 mph 24.2 mph N/A   Mostly Cloudy
2:51 PM 70.0 °F 55.9 °F 61% 29.49 in 10.0 mi SSW 10.4 mph 17.3 mph N/A   Mostly Cloudy
3:51 PM 71.1 °F 55.0 °F 57% 29.48 in 10.0 mi SSW 12.7 mph - N/A   Overcast
4:51 PM 70.0 °F 57.0 °F 63% 29.46 in 10.0 mi South 11.5 mph - N/A   Overcast
5:51 PM 69.1 °F 57.9 °F 68% 29.45 in 10.0 mi South 8.1 mph - N/A   Overcast
6:51 PM 69.1 °F 57.9 °F 68% 29.44 in 10.0 mi SSE 12.7 mph - N/A   Overcast
7:51 PM 69.1 °F 57.0 °F 65% 29.42 in 10.0 mi SSE 10.4 mph 23.0 mph N/A   Overcast
8:51 PM 68.0 °F 57.0 °F 68% 29.41 in 10.0 mi SSE 15.0 mph 24.2 mph N/A   Overcast
9:51 PM 68.0 °F 57.0 °F 68% 29.38 in 10.0 mi South 15.0 mph 25.3 mph N/A   Overcast
10:51 PM 68.0 °F 57.0 °F 68% 29.36 in 10.0 mi South 17.3 mph 26.5 mph N/A   Overcast
11:51 PM 69.1 °F 59.0 °F 70% 29.34 in 10.0 mi South 19.6 mph 27.6 mph N/A   Overcast